Regional Weather Roundup
Issued by NWS

Home | Current Version | Previous Version | Graphics & Text | Print | Product List | Glossary On
Versions: 1 2 3 4 5 6 7 8 9 10 11 12 13 14 15 16 17 18 19 20 21 22 23 24 25 26 27 28 29 30 31 32 33 34 35 36 37 38 39 40 41 42 43 44 45 46 47 48 49 50
000
ASUS43 KLOT 241709
RWRIL

ILLINOIS REGIONAL WEATHER ROUNDUP
NATIONAL WEATHER SERVICE CHICAGO/ROMEOVILLE IL
1200 PM CDT SUN MAY 24 2015

NOTE: "FAIR" INDICATES FEW OR NO CLOUDS BELOW 12,000 FEET WITH NO
SIGNIFICANT WEATHER AND/OR OBSTRUCTIONS TO VISIBILITY.

* THESE STATIONS ARE NOT UNDER NWS QUALITY CONTROL. THEY ALSO MAY NOT
  REPORT WEATHER SUCH AS PRECIPITATION OR FOG.

ILZ001-002-007-009-015-016-024-241800-
NORTHWEST ILLINOIS

CITY           SKY/WX    TMP DP  RH WIND       PRES   REMARKS
MOLINE         CLOUDY    66  59  78 E13       29.99F
STERLING*      CLOUDY    66  57  72 E16       30.04F
SAVANNA*       LGT RAIN  63  57  81 SE10      30.04F
$$

ILZ003-004-008-010-011-017-018-241800-
NORTH CENTRAL ILLINOIS

CITY           SKY/WX    TMP DP  RH WIND       PRES   REMARKS
ROCKFORD       CLOUDY    68  55  63 SE10      30.10F
FREEPORT*      CLOUDY    63  57  80 E12       30.09F
ROCHELLE*      CLOUDY    67  57  71 E16       30.08F
DE KALB*       DRIZZLE   66  53  63 E15       30.10F
PERU*          CLOUDY    70  59  67 E13       30.06F
$$

ILZ005-006-012>014-019>023-241800-
NORTHEAST ILLINOIS

CITY           SKY/WX    TMP DP  RH WIND       PRES   REMARKS
CHICAGO-OHARE  CLOUDY    72  51  47 E8        30.12F
CHICAGO-MIDWAY CLOUDY    74  53  48 E9        30.12F
AURORA         CLOUDY    70  54  56 E12       30.11F
LANSING*       CLOUDY    73  53  47 SE9       30.13F
JOLIET*        CLOUDY    73  58  58 E7        30.10F
WAUKEGAN       CLOUDY    62  52  69 E7        30.14F
DUPAGE AIRPORT CLOUDY    71  53  52 E9        30.11F
KANKAKEE*      CLOUDY    80  62  53 S12       30.10F HX  81
WHEELING       CLOUDY    69  51  52 E6        30.14F
MORRIS*        CLOUDY    73  56  54 E10       30.07F
ROMEOVILLE*    CLOUDY    71  54  54 SE9       30.11F
NORTHERLY ISL    N/A     61  50  67 NE3         N/A
$$

LMZ740>746-241800-
SOUTHERN LAKE MICHIGAN

STATION/POSITION SKY/WX   TEMP    WIND        PRES    VSBY  WAVE
                          AIR SEA DIR/SP/G                  HT/PER
                          (F)     (DEG/KT/KT) (MB)    (MI)  (FT/S)
SOUTHERN BUOY              47 38  120/  4/  4 1022.7S         0
HARRISON CRIB              59     120/  3/  4   N/A
BURNHAM HARBOR             61      40/  4       N/A
CALUMET HARBOR             64      90/  8/  9   N/A
BURNS HARBOR               73     140/  5/ 10 1021.7F
MICHIGAN CITY              69     110/  6/  9   N/A
MICHIGAN CITY 6N           59 54   90/  4/  6   N/A           0
ST. JOSEPH                 64 55  150/  4/  4   N/A           0
$$

ILZ025>027-034>036-040-047-049-050-058-095>099-241800-
WEST-CENTRAL ILLINOIS

CITY           SKY/WX    TMP DP  RH WIND       PRES   REMARKS
QUINCY         CLOUDY    75  63  66 S14G22    29.96F
GALESBURG*     CLOUDY    75  63  66 SE10G17   29.99F
MACOMB*        PTSUNNY   75  63  64 S16       30.00F
JACKSONVILLE*  LGT RAIN  78  64  61 S18G29    30.01F HX  80
PITTSFIELD*    PTSUNNY   77  65  66 SE13      30.00S
$$

ILZ028>032-037-038-041>044-048-051>054-059>061-241800-
CENTRAL ILLINOIS

CITY           SKY/WX    TMP DP  RH WIND       PRES   REMARKS
PONTIAC        CLOUDY    82  59  46 S16       30.07F HX  82
BLOOMINGTON    LGT RAIN  79  64  61 S22       30.08F HX  81
DECATUR        PTSUNNY   81  64  56 S10G23    30.07F HX  82
PEORIA         CLOUDY    80  61  52 S8        30.02F HX  81
LACON*         CLOUDY    76  59  56 S8G16     30.02F
LINCOLN*       CLOUDY    80  63  54 S16G22    30.02F HX  82
SPRINGFIELD    CLOUDY    79  63  57 S20G25    30.04F HX  80
TAYLORVILLE    PTSUNNY   79  64  61 S16G25    30.06F HX  81
$$

ILZ033-039-045-046-055>057-062-063-241800-
EAST-CENTRAL ILLINOIS

CITY           SKY/WX    TMP DP  RH WIND       PRES   REMARKS
CHAMPAIGN      MOSUNNY   84  59  42 S24G31    30.09F HX  84
DANVILLE*      PTSUNNY   81  59  47 S14       30.10F HX  82
RANTOUL*       PTSUNNY   84  60  44 S15G25    30.09F HX  84
MATTOON        MOSUNNY   79  61  53 S14G22    30.11F HX  80
PARIS*         MOSUNNY   82  59  45 S14       30.14F HX  82
$$

ILZ079-100>102-241800-
SOUTHWEST ILLINOIS

CITY           SKY/WX    TMP DP  RH WIND       PRES   REMARKS
ALTON          PTSUNNY   81  66  61 S13G21    30.03F HX  83
BELLEVILLE     MOSUNNY   82  66  58 S23G30    30.03F HX  84
CAHOKIA*       MOSUNNY   84  62  47 S18G29    30.02F HX  85
SPARTA*        SUNNY     80  64  57 S16G26    30.07F HX  81
$$

ILZ064>066-069>071-074>076-080>082-084>086-088>090-092>094-241800-
SOUTH-CENTRAL ILLINOIS

CITY           SKY/WX    TMP DP  RH WIND       PRES   REMARKS
CARBONDALE     MOSUNNY   82  65  56 S21G29    30.08F HX  84
CAIRO*         PTSUNNY   83  64  52 S18       30.10S HX  84
EFFINGHAM*     MOSUNNY   81  58  45 SE12G20   30.11F HX  81
MARION         MOSUNNY   82  66  57 S14G22    30.10  HX  85
MT. VERNON     PTSUNNY   82  64  54 S15G22    30.11S HX  84
CENTRALIA*     MOSUNNY   83  62  49 S18G25    30.08F HX  84
SALEM*         PTSUNNY   83  62  50 S15G22    30.09F HX  83
METROPOLIS*    MOSUNNY   82  64  53 S13G20    30.11F HX  84
$$

ILZ067-068-072-073-078-083-087-091-241800-
SOUTHEAST ILLINOIS

CITY           SKY/WX    TMP DP  RH WIND       PRES   REMARKS
LAWRENCEVILLE  SUNNY     82  58  43 S17G25    30.14F HX  82
FLORA*         SUNNY     81  61  49 S14G22    30.11F HX  82
FAIRFIELD*     PTSUNNY   82  62  51 SE15G22   30.10F HX  83
HARRISBURG*    SUNNY     82  62  52 S16       30.13S HX  82
ROBINSON*      MOSUNNY   81  56  42 S13       30.14F HX  81
CARMI*         MOSUNNY   82  54  36 SE15G21   30.12F HX  81
$$

ABBREVIATIONS USED IN REMARKS
   TC - TEMPERATURE IN CELSIUS
  WCI - WIND CHILL INDEX
   HX - HEAT INDEX
  VSB - VISIBILITY
$$



USA.gov is the U.S. government's official web portal to all federal, state and local government web resources and services.